ASTRA 1P (SES-24)

Last updated on Wed Oct 29 2025 00:02:51 GMT+0000 (Coordinated Universal Time)

1 60086U 24115A 25301.32683400 .00000130 00000+0 00000+0 0 9992 2 60086 0.0653 334.7016 0004290 281.6729 277.4339 1.00270848 4874
UTC large
Height (km)
Speed (km/s)
/
Latitude / Longitude
Inclination (degrees)
Orbital Period (minutes)
Azimuth
Elevation
Range (km)
Doppler Factor

Next 0 passes for location: London (51.5072 / 0.1276)

Sorry there are no passes over London.